RH
36 36 36 36 36 37 37 38 39 38 37 37 38 40 40 40 40 40 39 39 38 38 37 38 38 38 38 38 37 36 35 34 33 32 31 31 31 31 31 30 30 29 29 29 28 28 28 27 27 27 26 26
42 42 42 42 41 41 41 41 41 40 39 40 42 43 43 43 43 42 41 40 40 40 40 41 41 41 39 38 36 35 34 34 33 33 33 32 32 31 29 28 27 27 26 26 25 25 25 24 24 24 24 24
50 50 49 48 47 46 46 45 44 43 43 44 45 46 46 46 45 43 43 43 44 44 44 43 41 39 37 36 35 35 35 36 35 35 33 32 30 29 28 28 28 28 27 27 27 26 26 26 25 25 26 26
51 50 49 49 48 48 47 47 47 46 46 46 46 46 46 46 46 47 47 46 45 43 41 39 37 36 35 35 36 36 36 36 35 33 32 32 31 31 31 31 30 30 29 29 28 28 27 27 27 27 28 28
50 49 48 48 49 48 48 48 48 47 47 47 47 48 49 50 49 47 45 43 41 39 38 37 36 36 36 36 36 36 36 35 35 34 34 33 32 32 31 30 30 29 28 28 27 27 27 27 27 28 28 29
52 51 51 51 50 50 50 49 49 49 49 50 51 52 51 49 47 45 44 43 42 40 39 39 38 39 39 38 38 38 37 36 35 34 33 32 32 31 30 30 29 29 28 28 28 28 28 28 28 28 29 29
53 53 53 52 51 50 50 51 52 52 53 54 54 52 50 48 47 47 46 46 45 44 44 44 44 43 43 41 39 38 36 35 33 32 31 31 31 30 30 29 29 29 29 29 29 29 29 28 27 27 27 26
54 54 54 53 52 51 53 56 58 59 59 59 58 55 53 50 49 49 50 50 50 50 49 48 47 46 43 40 38 35 33 31 30 29 28 27 26 26 26 26 26 26 27 27 28 28 27 27 26 25 24 24
55 55 55 53 51 50 55 60 64 65 65 63 60 56 53 50 51 54 56 55 53 51 49 47 45 42 40 37 34 32 30 27 26 24 23 23 22 22 23 23 24 25 26 27 27 27 26 26 25 24 23 22
55 54 54 52 49 48 53 61 65 65 65 63 58 54 51 51 54 57 56 53 50 47 45 43 41 39 36 34 31 29 27 25 22 21 20 20 20 20 21 23 25 26 27 27 27 27 26 26 25 23 22 22
54 53 53 51 48 47 51 62 67 66 66 64 59 54 53 55 56 55 52 49 47 45 42 40 38 36 34 31 30 28 25 23 21 19 19 19 19 20 22 24 26 27 28 28 28 28 28 27 26 24 24 24
54 53 51 49 47 47 55 68 73 72 71 65 59 57 57 57 55 51 48 46 44 42 39 37 35 33 31 29 27 26 23 22 20 19 19 19 21 22 24 25 26 28 28 28 28 27 26 25 24 24 25 26
53 51 49 48 46 48 61 75 78 77 71 63 60 61 61 57 51 48 45 44 41 38 36 33 32 30 28 26 25 24 22 21 20 19 20 21 22 24 26 27 28 28 27 27 26 25 23 22 23 24 25 26
51 49 47 46 46 54 71 81 81 76 66 61 64 64 59 54 50 47 44 41 38 35 33 30 28 27 25 24 24 22 21 20 20 20 21 22 24 26 27 28 27 26 26 26 25 24 23 24 24 25 26 27
48 46 46 45 49 65 81 85 80 69 62 64 65 61 56 53 49 46 42 38 35 32 29 28 26 25 25 24 24 22 22 21 21 22 24 26 28 29 28 27 27 27 27 26 25 25 25 26 27 28 29 30
46 45 44 45 58 77 87 83 74 64 64 67 63 60 56 53 49 45 41 35 32 30 28 28 27 26 26 25 24 23 22 22 23 25 28 30 30 29 28 27 28 27 27 26 25 26 27 29 30 32 33 34
46 45 45 54 72 86 87 78 68 66 69 67 63 61 59 55 50 43 38 34 32 31 32 31 30 29 28 27 26 24 24 24 25 27 30 30 29 28 28 28 28 27 26 26 26 28 30 32 33 34 34 34
47 46 53 70 85 88 82 73 69 71 71 66 63 63 62 56 48 42 38 35 35 37 37 35 32 31 30 30 29 28 26 26 27 29 30 30 29 28 28 28 28 28 28 28 29 31 33 34 34 33 32 32
47 53 70 85 91 86 78 73 73 75 70 64 62 62 61 54 47 42 39 39 42 44 42 38 35 33 33 32 32 31 29 29 30 30 30 30 29 29 29 29 29 30 30 31 32 34 35 35 34 32 31 30
51 66 86 93 90 85 79 79 81 79 70 61 58 60 58 52 46 42 42 46 49 50 47 42 39 37 36 36 35 34 32 32 32 32 32 30 30 30 30 31 31 32 33 34 36 37 37 35 33 31 30 28
61 83 96 94 89 86 86 92 92 83 70 60 57 59 56 50 45 45 47 52 55 55 51 46 43 41 40 38 36 35 34 34 33 32 32 31 31 32 32 33 34 36 37 38 40 39 37 34 32 30 29 27
76 95 98 93 91 92 97 103 98 83 69 63 62 60 55 49 46 47 52 56 58 57 52 48 45 42 40 38 36 36 35 35 34 32 32 32 33 33 33 35 37 39 40 41 40 38 35 32 30 29 28 26
89 98 95 92 94 98 104 105 93 76 68 67 67 62 54 49 48 51 57 60 57 54 50 47 44 41 40 37 35 35 36 35 34 33 33 34 35 35 35 36 38 41 42 42 39 36 33 30 28 27 26 25
96 96 91 92 96 101 105 100 82 69 70 70 68 62 54 52 53 57 61 60 56 52 48 45 42 41 40 38 36 35 36 36 36 36 36 37 37 37 36 37 40 42 42 41 38 34 31 28 26 25 24 23
96 92 89 93 99 103 102 90 73 70 73 70 66 61 57 58 60 62 64 62 57 50 44 43 42 43 46 45 42 39 38 40 41 39 39 39 39 38 38 40 42 43 42 40 36 33 29 27 25 24 23 21
93 88 91 97 101 103 96 80 73 75 73 67 65 62 60 62 63 64 64 58 51 44 42 43 44 50 52 50 50 49 45 46 45 42 41 40 40 40 40 42 44 44 42 40 37 32 28 25 23 22 20 18
90 90 96 100 102 101 89 76 77 77 70 66 66 64 62 60 60 61 57 49 44 42 43 45 48 53 51 54 66 63 53 50 47 44 43 42 42 41 40 42 44 44 43 41 36 31 26 23 21 19 17 15
92 96 100 100 102 98 84 78 80 76 70 68 67 66 64 59 57 57 51 45 43 42 44 46 49 52 55 71 81 67 53 51 48 46 45 44 43 41 39 41 42 44 45 41 34 28 23 21 19 17 15 14
96 100 101 100 104 99 85 83 83 79 78 73 70 70 66 59 55 52 48 44 42 43 45 47 52 59 68 82 78 58 52 54 52 50 48 47 45 42 40 39 39 41 43 39 31 25 21 19 18 17 16 14
99 102 100 102 109 101 89 90 88 87 87 78 74 72 64 59 54 50 47 43 41 43 46 51 64 73 77 80 70 57 58 59 57 54 50 48 46 42 40 38 37 39 40 36 28 22 20 19 18 18 17 15
101 102 100 103 110 101 93 96 94 93 93 83 75 71 65 61 56 52 46 42 42 42 47 62 77 79 77 79 71 63 64 62 58 54 49 48 45 41 39 36 36 38 37 31 24 22 20 19 20 19 18 15
Wind_Speed
7 8 9 10 10 11 12 13 13 14 14 15 16 17 19 20 22 23 24 26 27 28 29 31 32 33 35 36 38 40 42 44 45 47 48 48 49 51 52 53 54 55 57 58 59 61 62 63 64 65 67 68
9 10 11 11 12 13 14 15 15 16 17 18 19 20 22 23 24 25 26 28 29 30 31 32 34 36 37 39 40 42 43 44 45 47 48 49 50 51 52 53 55 56 58 59 60 62 63 64 66 67 68 70
10 11 12 13 13 14 15 16 17 18 19 20 22 23 24 25 27 27 28 30 31 32 34 35 36 38 39 40 41 42 43 44 45 47 48 49 51 52 54 55 57 58 60 61 63 64 66 67 68 70 71 72
10 11 12 13 14 15 16 17 18 19 21 22 24 25 26 27 28 29 30 31 33 34 35 36 37 38 39 40 40 42 43 45 46 48 50 52 53 55 57 58 60 61 62 64 65 66 68 69 70 72 73 74
11 12 13 14 15 16 18 19 20 21 22 23 25 26 26 27 28 30 31 32 33 34 35 36 37 38 39 40 41 43 45 47 49 51 53 54 56 58 59 60 62 63 64 66 67 68 69 70 72 73 74 75
12 13 14 16 17 18 19 20 21 22 23 24 24 25 26 28 29 30 32 33 34 35 35 36 37 39 40 42 43 45 47 49 51 53 54 56 58 60 61 62 64 65 66 67 68 69 70 72 73 74 76 77
13 15 16 17 19 20 21 22 22 23 23 23 24 26 28 30 31 32 33 34 35 36 37 38 39 41 42 44 45 47 49 51 53 55 57 58 60 62 63 64 65 66 67 68 69 71 72 73 75 76 77 78
15 16 18 20 22 23 23 23 23 23 23 25 27 29 30 31 32 33 34 35 37 38 39 40 41 43 44 46 48 49 51 53 55 56 58 60 61 62 64 65 66 67 68 69 70 72 73 74 75 76 78 79
17 19 20 22 24 24 25 24 23 23 25 27 29 30 31 32 33 34 36 37 38 40 41 42 44 45 46 48 49 51 52 54 56 57 59 60 62 63 64 65 66 67 68 69 70 71 73 74 76 77 79 81
19 21 22 24 25 26 26 26 25 25 27 29 31 33 33 34 35 37 38 40 41 42 43 44 45 47 48 49 51 53 54 56 57 58 60 61 62 63 64 65 65 66 67 69 70 72 74 76 78 80 82 83
22 23 25 26 27 28 28 28 27 28 30 32 34 35 35 36 38 40 41 42 43 44 45 46 48 49 50 52 53 55 57 58 59 60 61 61 62 63 64 65 66 67 69 71 73 75 77 79 81 83 84 85
24 26 27 28 29 29 30 30 29 30 32 35 35 36 37 39 41 42 43 44 45 46 47 49 50 51 53 55 56 58 59 60 61 61 62 62 63 63 64 66 67 69 71 73 75 77 79 81 82 83 84 85
26 28 29 30 30 31 31 31 31 33 34 36 36 38 40 41 42 43 44 45 47 48 50 51 53 54 55 57 58 60 61 61 62 63 63 63 64 65 66 68 70 71 73 75 77 79 80 81 82 83 84 85
28 30 31 31 32 32 32 32 33 35 36 37 38 40 41 42 43 44 46 47 49 50 52 54 55 56 57 58 60 61 61 62 63 63 64 65 66 67 69 70 72 74 76 77 79 80 81 82 83 84 85 86
30 31 32 32 32 33 33 34 35 36 37 38 39 41 42 43 45 46 48 49 51 53 54 56 57 58 59 59 60 61 62 63 63 64 65 66 68 69 71 73 75 76 78 79 80 81 82 83 84 85 86 88
32 33 33 33 33 33 34 35 37 37 38 39 40 42 43 45 47 48 50 52 54 55 56 57 58 59 60 60 61 61 62 63 64 65 66 68 70 72 74 75 77 78 79 80 81 81 83 84 85 87 89 91
33 34 34 34 34 35 36 37 38 39 39 40 41 43 45 47 49 51 53 54 56 57 58 59 59 60 60 61 61 62 63 64 64 66 68 70 72 74 75 77 78 79 80 81 82 83 84 86 88 89 91 93
34 35 35 35 35 36 37 39 40 40 40 41 43 45 47 49 51 53 55 56 57 58 59 59 60 61 61 62 63 64 65 65 66 68 70 72 74 75 77 78 80 81 81 82 83 84 86 88 90 91 93 94
35 35 36 36 37 38 39 41 41 41 41 43 44 46 49 51 53 55 57 58 58 59 59 60 61 62 62 64 65 66 67 68 69 70 72 74 76 77 79 80 81 82 82 83 84 86 87 89 91 92 94 95
36 36 37 37 38 40 41 42 42 42 43 45 46 48 50 53 55 56 58 58 59 59 60 61 62 63 64 66 67 68 69 70 71 72 74 76 77 79 80 81 82 83 84 84 86 87 89 91 92 93 95 97
37 37 37 38 39 41 42 43 43 44 45 47 49 50 52 54 56 57 58 58 59 60 61 63 64 65 66 68 69 70 71 72 73 74 75 77 79 80 81 82 83 84 85 86 87 89 90 92 93 95 97 99
37 37 37 38 40 42 43 43 43 45 48 49 50 52 54 56 57 58 58 59 60 61 63 64 66 67 68 69 70 71 72 73 74 75 77 78 80 82 83 84 84 85 86 87 89 90 91 93 96 98 100 101
38 38 38 39 41 42 42 43 45 47 49 50 52 54 55 57 58 58 58 59 61 62 64 66 67 69 70 71 72 73 73 74 75 77 78 80 81 83 84 85 85 86 87 88 90 91 93 95 98 100 102 103
39 38 39 41 42 41 42 44 47 49 50 52 54 55 56 57 58 58 59 61 63 64 66 67 69 70 71 72 74 75 75 76 77 78 80 81 83 85 86 86 86 87 88 89 90 93 95 98 100 102 103 105
39 39 40 41 40 41 44 47 48 50 52 53 54 55 56 57 58 58 60 62 64 67 68 69 70 71 72 74 76 77 78 78 79 80 82 83 85 86 87 87 87 88 89 90 92 95 97 100 102 103 104 106
40 40 41 40 39 42 46 48 49 51 52 54 55 55 57 58 59 59 61 62 65 68 69 69 70 71 72 74 77 79 79 80 81 82 84 85 86 87 88 88 89 90 92 93 95 98 100 102 103 103 104 106
40 41 40 38 40 45 48 49 50 52 53 55 56 57 58 59 59 60 61 64 67 69 69 69 70 71 73 75 78 80 81 81 82 84 85 86 87 88 88 89 90 92 94 95 98 101 104 105 105 106 106 108
41 40 38 38 43 47 49 50 51 52 54 56 57 57 59 60 60 61 64 67 69 70 70 70 71 72 74 76 79 81 82 82 84 85 87 88 89 89 89 90 92 94 95 96 99 103 105 106 108 109 111 112
41 39 38 41 45 49 50 51 51 53 55 56 57 58 59 60 61 63 66 69 70 70 71 71 71 73 75 77 80 82 82 83 85 87 88 89 90 91 91 92 94 95 95 96 100 103 105 107 109 112 114 116
41 40 40 43 47 50 51 51 52 53 55 57 58 58 60 61 63 65 69 71 71 71 71 71 72 74 76 79 82 83 83 84 86 88 89 91 92 92 93 94 96 96 95 97 101 103 105 107 110 112 115 118
41 40 42 44 48 50 51 51 52 53 56 58 59 60 61 63 65 67 71 72 72 72 71 71 73 75 78 81 83 83 83 85 87 89 91 92 93 94 95 96 96 95 94 97 101 103 106 109 111 113 116 118
Wind_Direction
329 326 321 317 313 310 307 304 303 301 299 298 297 297 296 295 294 294 293 293 292 292 292 292 292 292 292 291 291 291 290 290 290 290 291 291 292 292 292 292 292 291 291 291 290 290 290 289 289 289 288 288
324 321 318 315 312 309 307 305 303 301 299 297 298 298 297 297 296 296 296 295 295 294 294 294 294 294 294 293 293 293 292 292 293 293 293 293 293 293 293 293 292 292 292 292 291 291 291 290 290 290 289 288
319 317 315 313 312 310 308 306 303 300 297 296 296 296 296 296 296 296 296 295 295 295 295 295 295 295 295 295 294 294 294 294 294 294 294 294 294 294 294 294 293 293 293 292 292 292 291 291 290 290 289 289
310 310 309 309 308 306 305 303 300 297 295 294 294 294 295 296 296 296 296 295 295 295 295 295 295 295 295 296 296 295 295 295 295 296 296 295 295 295 295 294 294 293 293 293 292 292 291 291 290 290 289 288
304 304 305 305 304 304 302 301 299 297 295 294 294 295 296 297 298 298 298 297 297 297 297 297 297 297 298 298 298 298 298 298 297 297 297 296 296 295 295 294 294 293 293 293 292 292 291 290 290 289 289 288
301 302 303 304 304 304 303 301 299 298 297 296 297 298 299 300 301 301 301 300 300 300 300 300 300 301 301 301 300 300 299 299 298 298 297 297 296 296 295 295 294 294 293 292 292 291 291 290 289 289 288 288
299 302 305 307 307 306 305 303 301 300 299 301 302 303 304 305 305 305 304 304 303 303 302 302 302 302 302 301 300 300 300 299 299 298 298 297 296 296 295 295 294 293 293 292 291 291 290 290 290 290 290 290
302 306 309 309 308 307 306 305 303 303 304 306 306 306 306 306 307 307 307 306 304 303 302 301 301 301 301 300 300 300 300 300 300 299 298 297 297 296 295 294 294 293 293 292 292 292 292 292 293 293 293 293
305 307 307 306 305 305 306 305 303 303 305 306 306 305 305 306 307 308 308 306 304 302 302 301 301 301 301 301 301 301 301 301 301 300 300 299 298 297 296 295 295 295 294 294 294 295 295 295 296 296 295 295
304 304 304 303 302 303 305 304 302 301 304 306 307 307 307 307 308 308 308 307 305 304 303 303 302 302 302 302 303 303 303 303 303 303 302 301 300 300 299 298 298 297 297 297 297 297 298 298 298 297 297 296
302 302 302 301 301 303 304 304 303 302 304 307 309 308 308 308 308 308 308 308 307 306 305 304 304 304 304 305 305 305 305 305 305 305 304 304 303 302 302 301 301 300 300 300 300 299 299 298 298 298 297 297
300 300 300 300 301 302 304 305 304 303 306 308 309 308 308 308 309 309 309 308 308 307 307 306 306 307 307 307 307 307 307 307 307 307 306 305 305 305 304 304 303 303 302 301 301 300 300 299 299 298 298 297
298 298 299 300 301 302 304 304 303 304 307 308 309 309 310 310 310 310 310 310 309 309 309 309 309 309 308 308 308 308 308 308 308 307 307 307 306 306 306 305 304 304 303 302 302 302 301 301 300 299 299 297
297 298 299 300 300 302 303 304 304 305 307 309 310 310 311 311 311 312 312 311 311 311 310 310 310 310 310 310 310 310 309 309 309 308 308 308 308 307 306 306 305 305 304 304 304 303 303 302 301 300 299 298
297 298 298 299 299 301 303 303 304 306 307 309 311 311 312 312 312 313 313 312 312 312 312 312 312 312 312 311 311 311 310 310 310 309 309 309 308 308 307 306 306 305 305 305 304 304 303 302 301 301 300 299
297 297 297 297 299 301 302 302 304 306 308 310 311 312 312 313 313 313 313 314 314 314 314 314 314 314 313 313 312 312 311 311 311 310 310 309 308 307 307 307 306 306 306 305 305 304 303 303 302 302 301 300
297 297 297 297 300 301 302 302 304 306 308 310 312 313 313 313 314 314 315 315 315 315 315 315 315 315 314 314 313 313 312 312 311 310 309 308 308 308 307 307 307 307 307 306 305 305 304 304 303 302 301 300
296 296 297 299 301 302 302 303 304 306 309 311 313 313 313 314 314 315 315 316 316 316 316 316 316 315 315 314 314 314 313 313 311 310 309 308 308 308 308 308 308 308 307 306 306 305 305 304 303 303 302 301
296 296 297 300 301 302 302 303 304 307 309 312 313 313 313 314 315 315 316 316 316 316 316 316 315 315 315 315 315 314 314 313 311 310 309 309 309 308 308 309 309 308 308 307 306 306 305 304 304 303 302 301
296 296 298 300 302 302 303 303 305 307 309 312 313 312 313 314 315 315 315 315 315 315 315 315 315 315 315 315 315 314 313 312 311 310 310 309 309 309 309 309 309 308 308 307 307 306 305 305 304 303 302 301
295 296 298 301 303 303 303 304 305 308 310 312 312 312 313 314 315 315 315 315 315 315 315 315 315 315 315 315 314 314 313 312 311 311 310 310 310 310 310 310 309 309 308 308 307 306 306 305 305 304 303 302
294 296 300 303 303 303 302 303 306 309 311 312 312 312 313 314 314 315 315 315 315 315 315 315 315 315 315 314 315 314 313 313 312 311 311 311 311 311 311 311 310 310 309 308 307 307 307 306 306 305 304 303
294 297 301 304 303 302 301 303 306 309 311 311 311 312 313 314 315 315 315 315 315 315 315 315 314 314 314 315 315 315 314 313 313 313 313 312 312 312 312 311 311 310 309 308 308 307 308 308 307 307 305 303
295 298 302 303 302 300 301 304 307 309 310 311 311 313 314 315 315 316 315 315 315 315 315 315 314 314 314 315 315 315 314 314 314 314 313 313 313 313 312 312 311 310 309 308 308 309 309 310 309 307 305 303
295 299 302 302 300 300 301 304 307 308 310 311 312 314 315 315 316 316 315 315 315 315 315 315 315 315 315 315 316 316 315 315 315 314 314 314 314 313 313 312 311 310 309 309 309 310 311 310 309 307 305 304
296 300 301 300 300 300 301 304 307 309 310 311 313 314 315 315 315 315 315 315 315 316 316 316 315 315 315 315 315 316 316 316 315 315 315 314 314 314 313 313 312 310 310 310 311 312 312 311 309 307 306 306
297 300 299 299 299 299 301 305 307 309 310 312 313 314 315 315 315 315 315 316 316 317 317 316 315 315 315 315 315 316 316 316 315 315 315 315 315 315 314 313 312 311 311 311 313 313 313 311 310 309 309 309
298 299 298 298 298 299 302 306 308 309 310 312 313 314 314 314 314 315 316 317 317 317 317 316 315 315 315 315 315 315 316 316 315 315 315 315 316 316 315 314 312 312 311 312 313 314 313 313 313 313 313 312
298 296 296 298 298 300 303 306 308 309 310 311 313 314 314 314 315 316 317 318 318 318 317 316 315 315 315 315 315 316 316 315 315 315 316 316 316 316 315 314 313 312 311 312 314 314 315 315 316 317 317 316
296 294 296 298 299 301 304 306 307 309 310 311 312 313 313 314 315 317 318 319 318 317 316 316 315 314 315 314 315 316 315 315 316 316 316 316 316 316 315 314 314 313 312 313 314 315 316 318 319 320 320 320
294 293 297 299 300 302 304 305 307 308 309 310 312 313 314 315 316 317 318 319 318 317 316 315 314 314 314 314 315 315 315 316 316 316 316 317 316 316 315 315 314 313 313 314 316 318 320 322 322 323 323 322